Zurück zum Katalog

COSMOS 1382 DEB

LostHEO
NORAD 27903·DEBRIS·🇷🇺 Russia

Gestartet Jun 25, 1982 von Plesetsk Cosmodrome

Loading…

Nächste Überflüge (nächste 24 Stunden)

TLE

VeraltetSource: Space-Track

Epoche: Jun 17, 2024, 02:22 UTC

1 27903U 82064E   24169.09863730  .00000057  00000-0  00000+0 0  9990
2 27903  67.0725 318.8962 6432168 357.6950   0.2243  1.96133753156564

Verfolge COSMOS 1382 DEB in Echtzeit mit AllMySat

Download on the App Store